Regional Weather Roundup
Issued by NWS Kansas City/Pleasant Hill, MO

Home | Current Version | Previous Version | Text Only | Print | Product List | Glossary On
Versions: 1 2 3 4 5 6 7 8 9 10 11 12 13 14 15 16 17 18 19 20 21 22 23 24 25 26 27 28 29 30 31 32 33 34 35 36 37 38 39 40 41 42 43 44 45 46 47 48 49 50
000
ASUS43 KEAX 030515
RWREAX

WEATHER ROUNDUP FOR EASTERN KANSAS AND NORTHWEST MISSOURI
NATIONAL WEATHER SERVICE KANSAS CITY/PLEASANT HILL MO
1100 PM CST TUE MAR 02 2021

KSZ040-057-103>105-MOZ028-029-037-043-030600-
...KANSAS CITY METROPOLITAN AREA...

CITY           SKY/WX    TMP DP  RH WIND       PRES   REMARKS
K.C. INTL      CLEAR     48  23  37 SW12      29.98S
K.C. DOWNTOWN  CLEAR     45  22  40 S10       29.99S
LEES SUMMIT    CLEAR     47  24  40 SW13      30.01S
OLATHE - IXD   CLEAR     43  22  43 S13       30.01S
OLATHE - OJC   CLEAR     44  24  45 S9        30.00F
LAWRENCE       CLEAR     49  22  34 SW10      29.99F

$$

MOZ001>008-011>017-020>025-030>033-038>040-044>046-053-054-030600-
...NORTHERN AND CENTRAL MISSOURI...

CITY           SKY/WX    TMP DP  RH WIND       PRES   REMARKS
ST. JOSEPH     CLEAR     43  22  43 S5        29.97S
MOSBY          CLEAR     43  25  49 S5        30.00S
WHITEMAN AFB   CLEAR     41  26  55 S10       29.99S WCI  35
CLINTON        PTCLDY    45  27  49 S8        30.04F
SEDALIA        CLEAR     48  25  40 SW13      30.04F
CHILLICOTHE      N/A     45  26  47 S8        29.98F
MOBERLY        CLEAR     45  27  49 S10       30.01F
KIRKSVILLE     CLEAR     45  30  55 SW12      29.98F

$$

MOZ041-047>049-056>058-063>065-088>090-097-030600-
...EASTERN AND SOUTHERN MISSOURI...

CITY           SKY/WX    TMP DP  RH WIND       PRES   REMARKS
ST. LOUIS INTL CLEAR     46  30  53 S7        30.06F
SPIRIT OF STL  CLEAR     33  28  81 W3        30.05F
COLUMBIA       CLEAR     41  26  55 S10       30.03F WCI  35
JEFFERSON CITY CLEAR     46  24  42 CALM      30.06F
MEXICO         CLEAR     36  28  75 S7        30.03S WCI  30
HANNIBAL       CLEAR     41  27  56 S8        30.01F
ROLLA          CLEAR     35  25  66 SW8       30.07S WCI  29
LEBANON        CLEAR     43  25  49 SW6       30.09S
OSAGE BEACH    CLEAR     40  27  59 S5        30.07F
SPRINGFIELD    CLEAR     38  26  62 S7        30.08S WCI  33
BRANSON        PTCLDY    45  27  49 S6        30.11S
JOPLIN         CLEAR     41  25  53 S9        30.09R
WEST PLAINS    CLEAR     41  30  65 SW6       30.11F
SIKESTON       CLEAR     41  34  75 SW7       30.15S

$$

IAZ060-094-KSZ022-034>040-054-083-096-NEZ052-066-093-030600-
...KANSAS...SOUTHEAST NEBRASKA AND IOWA...

CITY           SKY/WX    TMP DP  RH WIND       PRES   REMARKS
TOPEKA         CLEAR     48  21  34 S6        29.99S
MANHATTAN      CLEAR     48  21  34 SW14      29.98S
EMPORIA        CLEAR     41  24  51 S13       30.00F WCI  34
OTTAWA         FAIR      39  25  56 S10       30.01F WCI  32
CHANUTE        CLEAR     42  26  53 S9        30.06R
SALINA         CLEAR     44  23  43 S9        29.97S
WICHITA        CLEAR     40  24  53 S9        30.02R WCI  34
OMAHA          CLEAR     39  27  62 CALM      29.91F
LINCOLN        CLEAR     38  23  55 SE6       29.94R WCI  33
FALLS CITY     CLEAR     46  22  38 SW10      29.93F
LAMONI         CLEAR     41  24  51 SW14      29.92F WCI  33
DES MOINES     CLEAR     42  25  50 SW7       29.90S

$$




USA.gov is the U.S. government's official web portal to all federal, state and local government web resources and services.